This demonstration page uses our WeatherBlox Daily Observations layout. Learn more.

Left ArrowRight Arrow

Hourly Observations for November 4, 2021

Temp ( °F °C ) Dew Point ( °F °C ) Humidity (%) Winds ( mph kmh ) Pressure ( in mb ) Visibility ( mi km ) Precip ( " mm )
12:56 am 00:56 Clear 34 1.1 33 0.6 97 97 SSW 9 15 30.25 1024 8 13 0.00 0.00
1:56 am 01:56 Clear 34 1.1 34 1.1 100 100 SW 5 7 30.24 1024 7 11 0.00 0.00
2:56 am 02:56 Clear with Mist and Fog 34 1.1 33 0.6 97 97 SW 6 9 30.23 1024 6 10 0.00 0.00
3:56 am 03:56 Clear with Mist and Fog 34 1.1 33 0.6 97 97 SW 7 11 30.21 1023 5 8 0.00 0.00
4:24 am 04:24 Partly Cloudy with Mist and Fog 34 1 34 1 100 100 SW 9 15 30.25 1024 5 8 0.00 0.00
4:33 am 04:33 Mostly Cloudy with Mist and Fog 34 1 34 1 100 100 WSW 6 9 30.25 1024 3 5 0.00 0.00
4:38 am 04:38 Mostly Cloudy with Mist and Fog 34 1 34 1 100 100 SW 6 9 30.25 1024 2 3 0.00 0.00
4:45 am 04:45 Cloudy with Mist and Fog 34 1 34 1 100 100 SW 5 7 30.25 1024 1 1 0.00 0.00
4:54 am 04:54 Cloudy with Fog 34 1 34 1 100 100 SW 5 7 30.25 1024 0 0 0.00 0.00
4:56 am 04:56 Cloudy with Fog 34 1.1 33 0.6 97 97 SW 5 7 30.20 1023 0 0 0.00 0.00
5:24 am 05:24 Cloudy with Fog 34 1 34 1 100 100 SW 7 11 30.24 1024 1 1 0.00 0.00
5:45 am 05:45 Cloudy with Mist and Fog 34 1 34 1 100 100 SSW 7 11 30.24 1024 1 1 0.00 0.00
5:53 am 05:53 Cloudy with Mist and Fog 34 1 32 0 93 93 SW 7 11 30.24 1024 1 2 0.00 0.00
5:56 am 05:56 Cloudy with Mist and Fog 33 0.6 32 0 96 96 SW 7 11 30.20 1023 1 2 0.00 0.00
6:17 am 06:17 Cloudy with Mist and Fog 32 0 30 -1 93 93 SW 5 7 30.25 1024 2 3 0.00 0.00
6:26 am 06:26 Cloudy with Mist and Fog 32 0 30 -1 93 93 SSW 5 7 30.25 1024 1 1 0.00 0.00
6:42 am 06:42 Cloudy with Mist and Fog 30 -1 30 -1 100 100 SW 7 11 30.27 1025 1 2 0.00 0.00
6:56 am 06:56 Cloudy with Mist and Fog 31 -0.6 31 -0.6 100 100 S 5 7 30.21 1023 1 2 0.00 0.00
7:00 am 07:00 Cloudy with Freezing Fog 30 -1 30 -1 100 100 S 6 9 30.27 1025 1 1 0.00 0.00
7:56 am 07:56 Cloudy with Freezing Fog 30 -1.1 29 -1.7 96 96 SSW 6 9 30.22 1023 1 1 0.00 0.00
8:04 am 08:04 Cloudy with Freezing Fog 30 -1 28 -2 93 93 S 3 6 30.27 1025 0 0 0.00 0.00
8:26 am 08:26 Mostly Cloudy with Mist and Fog 28 -2 28 -2 100 100 SSW 5 7 30.28 1025 1 1 0.00 0.00
8:28 am 08:28 Mostly Cloudy with Mist and Fog 28 -2 28 -2 100 100 S 6 9 30.28 1025 2 2 0.00 0.00
8:30 am 08:30 Partly Cloudy with Mist and Fog 28 -2 28 -2 100 100 S 6 9 30.28 1025 3 5 0.00 0.00
8:56 am 08:56 Sunny 30 -1.1 30 -1.1 100 100 S 6 9 30.22 1023 8 13 0.00 0.00
9:56 am 09:56 Sunny 36 2.2 35 1.7 97 97 S 5 7 30.22 1023 10 16 0.00 0.00
10:56 am 10:56 Sunny 41 5 38 3.3 89 89 S 5 7 30.19 1022 10 16 0.00 0.00
11:56 am 11:56 Sunny 49 9.4 43 6.1 80 80 S 10 17 30.18 1022 10 16 0.00 0.00
12:56 pm 12:56 Sunny 55 12.8 43 6.1 64 64 S 13 20 30.15 1021 10 16 0.00 0.00
1:56 pm 13:56 Sunny 57 13.9 44 6.7 62 62 S 12 19 30.12 1020 10 16 0.00 0.00
2:56 pm 14:56 Sunny 59 15 42 5.6 54 54 S 15 24 30.09 1019 10 16 0.00 0.00
3:56 pm 15:56 Sunny 59 15 42 5.6 54 54 S 16 26 30.07 1018 10 16 0.00 0.00
4:56 pm 16:56 Sunny 57 13.9 42 5.6 58 58 S 16 26 30.07 1018 10 16 0.00 0.00
5:56 pm 17:56 Sunny 54 12.2 42 5.6 64 64 S 13 20 30.06 1018 10 16 0.00 0.00
6:56 pm 18:56 Clear 48 8.9 42 5.6 80 80 SSE 9 15 30.06 1018 10 16 0.00 0.00
7:56 pm 19:56 Clear 47 8.3 42 5.6 83 83 SSE 10 17 30.07 1018 10 16 0.00 0.00
8:56 pm 20:56 Clear 47 8.3 42 5.6 83 83 SSE 12 19 30.06 1018 10 16 0.00 0.00
9:56 pm 21:56 Clear 46 7.8 42 5.6 86 86 S 12 19 30.04 1017 10 16 0.00 0.00
10:56 pm 22:56 Clear 46 7.8 42 5.6 86 86 S 12 19 30.04 1017 10 16 0.00 0.00
11:56 pm 23:56 Clear 45 7.2 42 5.6 90 90 S 14 22 30.02 1017 10 16 0.00 0.00

Powered by AerisWeather